FW4012 Weather Reports


Display with metric or nautical units.
time (UTC)temp
F
wind
direction
speed
MPH
gust
MPH
rain 1hr
in
rain 24hr
in
rain mn
in
humidity
%
barometer
mb
20260510170308 57 109 1.0 3.0 0.00 2.95 0.75 89 1010.8
20260510165803 57 86 1.0 3.0 0.00 2.95 0.75 89 1010.8
20260510165234 57 113 1.0 3.0 0.04 2.95 0.75 88 1010.8
20260510164731 57 101 1.0 4.0 0.04 2.95 0.75 88 1010.8
20260510164227 57 111 2.0 4.0 0.04 2.95 0.75 88 1010.7
20260510163751 57 65 1.0 2.0 0.04 2.95 0.75 88 1010.8
20260510163230 57 101 0.0 3.0 0.04 2.95 0.75 88 1011.0
20260510162755 57 101 1.0 4.0 0.04 2.95 0.75 88 1010.9
20260510162253 57 109 3.0 4.0 0.04 2.95 0.75 88 1010.9
20260510161732 57 133 2.0 3.0 0.04 2.95 0.75 87 1011.1
20260510160743 57 96 1.0 3.0 0.08 2.95 0.75 87 1011.2
20260510160303 57 96 2.0 4.0 0.12 2.95 0.75 88 1011.2
20260510155723 58 92 2.0 3.0 0.12 2.95 0.75 87 1011.2
20260510155223 58 126 1.0 3.0 0.08 2.91 0.74 88 1011.3
20260510154751 58 84 0.0 2.0 0.08 2.91 0.74 87 1011.4
20260510154251 58 82 0.0 2.0 0.08 2.91 0.74 87 1011.5
20260510153731 58 81 0.0 2.0 0.08 2.91 0.74 87 1011.4
20260510153226 58 78 1.0 2.0 0.08 2.91 0.74 87 1011.4
20260510152725 58 77 0.0 2.0 0.08 2.91 0.74 87 1011.5
20260510152245 58 78 0.0 2.0 0.08 2.91 0.74 87 1011.5
20260510151734 58 76 0.0 2.0 0.08 2.91 0.74 87 1011.5
20260510151233 58 76 1.0 4.0 0.04 2.87 0.73 86 1011.5
20260510150730 58 101 2.0 4.0 0.04 2.87 0.73 86 1011.4
20260510150250 58 121 1.0 2.0 0.00 2.83 0.72 86 1011.5
20260510145728 58 128 0.0 3.0 0.00 2.83 0.72 85 1011.6
20260510145255 58 128 2.0 3.0 0.00 2.83 0.72 85 1011.6
20260510144749 59 128 1.0 7.0 0.00 2.83 0.72 85 1011.6
20260510144228 59 130 4.0 7.0 0.00 2.83 0.72 85 1011.7
20260510143728 59 138 3.0 4.0 0.00 2.83 0.72 86 1011.7
20260510143227 59 164 2.0 5.0 0.00 2.83 0.72 85 1011.8
20260510142727 59 164 2.0 5.0 0.00 2.83 0.72 85 1011.8
20260510142248 59 162 2.0 5.0 0.00 2.83 0.72 86 1011.8
20260510141725 59 162 2.0 5.0 0.00 2.83 0.72 86 1011.7
20260510141225 59 162 2.0 5.0 0.00 2.83 0.72 86 1011.7
20260510140724 59 177 2.0 3.0 0.00 2.83 0.72 86 1011.9
20260510140250 58 177 1.0 3.0 0.00 2.83 0.72 86 1011.9
20260510135744 58 137 0.0 3.0 0.00 2.83 0.72 85 1011.9
20260510135243 58 138 1.0 6.0 0.00 2.83 0.72 85 1012.0
20260510134743 58 134 3.0 7.0 0.00 2.83 0.72 84 1012.0
20260510134240 59 152 2.0 7.0 0.00 2.83 0.72 84 1012.1
20260510133737 59 179 3.0 8.0 0.00 2.83 0.72 84 1012.1
20260510133238 59 168 2.0 8.0 0.00 2.83 0.72 86 1012.1
20260510132736 59 190 3.0 7.0 0.00 2.83 0.72 86 1012.1
20260510132237 59 130 3.0 7.0 0.00 2.83 0.72 87 1012.2
20260510131736 58 132 4.0 7.0 0.00 2.83 0.72 87 1012.4
20260510131236 58 153 2.0 7.0 0.00 2.83 0.72 88 1012.5
20260510130734 58 139 3.0 6.0 0.04 2.83 0.72 88 1012.5
20260510130235 59 144 0.0 3.0 0.04 2.83 0.72 89 1012.4
20260510125751 58 143 1.0 7.0 0.04 2.83 0.72 89 1012.4
20260510125229 58 119 4.0 7.0 0.04 2.83 0.72 89 1012.3
20260510124728 58 123 1.0 6.0 0.04 2.83 0.72 90 1012.3
20260510124227 58 124 3.0 7.0 0.08 2.83 0.72 90 1012.4
20260510123726 58 123 4.0 7.0 0.12 2.83 0.72 89 1012.5
20260510123227 58 95 2.0 7.0 0.16 2.83 0.72 90 1012.5
20260510122728 58 109 3.0 7.0 0.20 2.83 0.72 91 1012.7
20260510122228 58 108 2.0 5.0 0.24 2.83 0.72 91 1012.8
20260510121728 58 72 3.0 5.0 0.24 2.83 0.72 90 1012.7
20260510121257 58 26 1.0 3.0 0.24 2.83 0.72 91 1012.8
20260510120734 58 26 1.0 4.0 0.24 2.80 0.71 92 1012.9
20260510120247 58 24 2.0 4.0 0.28 2.80 0.71 92 1012.9
20260510115726 58 27 1.0 3.0 0.28 2.80 0.71 92 1013.0
20260510115246 58 27 1.0 4.0 0.28 2.80 0.71 92 1012.9
20260510114724 58 340 2.0 4.0 0.31 2.80 0.71 92 1013.0
20260510114252 58 33 2.0 4.0 0.28 2.76 0.70 92 1013.0
20260510113741 58 329 3.0 5.0 0.28 2.72 0.69 92 1013.1
20260510113238 58 11 3.0 5.0 0.28 2.68 0.68 93 1013.0
20260510112737 59 302 2.0 5.0 0.24 2.64 0.67 93 1013.1
20260510112259 59 350 3.0 5.0 0.24 2.60 0.66 93 1013.2
20260510111838 59 24 2.0 4.0 0.28 2.60 0.66 93 1013.1
20260510111233 59 306 3.0 6.0 0.35 2.56 0.65 93 1013.2
20260510110728 59 344 3.0 6.0 0.39 2.56 0.65 93 1013.2
20260510110245 59 336 3.0 6.0 0.39 2.52 0.64 93 1013.3
20260510105742 59 324 4.0 6.0 0.39 2.52 0.64 93 1013.3
20260510105239 58 304 4.0 6.0 0.39 2.48 0.63 93 1013.3
20260510104734 59 288 4.0 7.0 0.39 2.48 0.63 93 1013.3
20260510104231 58 320 4.0 6.0 0.39 2.48 0.63 93 1013.3
20260510103728 58 337 3.0 6.0 0.39 2.44 0.62 93 1013.4
20260510103227 58 320 3.0 6.0 0.35 2.40 0.61 93 1013.5
20260510102727 58 323 3.0 4.0 0.39 2.40 0.61 93 1013.4
20260510102226 58 9 2.0 5.0 0.39 2.36 0.60 93 1013.3
20260510101732 58 10 3.0 8.0 0.31 2.28 0.58 93 1013.5
20260510101231 58 343 4.0 8.0 0.28 2.20 0.56 93 1013.5
20260510100725 58 319 3.0 6.0 0.24 2.17 0.55 93 1013.4
20260510100245 58 20 3.0 6.0 0.24 2.13 0.54 93 1013.5
20260510095748 58 315 4.0 6.0 0.28 2.13 0.54 93 1013.4
20260510095229 58 325 4.0 6.0 0.31 2.09 0.53 93 1013.4
20260510094753 58 344 2.0 5.0 0.35 2.09 0.53 93 1013.4
20260509233742 54 342 3.0 3.0 0.00 0.00 0.00 86 1013.7
20260509233257 54 343 2.0 3.0 0.00 0.00 0.00 86 1013.7
20260509232747 54 343 2.0 3.0 0.00 0.00 0.00 86 1013.8
20260509232250 54 343 1.0 3.0 0.00 0.00 0.00 86 1013.9
20260509231742 54 343 1.0 3.0 0.00 0.00 0.00 86 1013.9
20260509231239 54 344 0.0 1.0 0.00 0.00 0.00 85 1013.9
20260509230735 54 344 0.0 3.0 0.00 0.00 0.00 85 1013.9
20260509230232 55 344 2.0 3.0 0.00 0.00 0.00 86 1013.9
20260509225733 55 342 1.0 3.0 0.00 0.00 0.00 86 1013.8
20260509225248 55 342 1.0 3.0 0.00 0.00 0.00 86 1013.8
20260509224724 55 342 1.0 3.0 0.00 0.00 0.00 86 1013.7
20260509224225 54 342 2.0 3.0 0.00 0.00 0.00 85 1013.8
20260509223724 54 342 1.0 3.0 0.00 0.00 0.00 85 1013.9
20260509223223 54 342 1.0 3.0 0.00 0.00 0.00 85 1013.8
20260509222741 54 344 1.0 3.0 0.00 0.00 0.00 85 1013.9
20260509222238 54 344 2.0 3.0 0.00 0.00 0.00 85 1013.9
20260509221738 54 344 1.0 2.0 0.00 0.00 0.00 84 1013.9
20260509221235 54 344 0.0 2.0 0.00 0.00 0.00 84 1013.8
20260509220759 54 344 1.0 2.0 0.00 0.00 0.00 84 1013.9
20260509220235 55 344 0.0 1.0 0.00 0.00 0.00 84 1013.8
20260509215735 55 344 0.0 0.0 0.00 0.00 0.00 83 1013.8
20260509215256 55 344 0.0 1.0 0.00 0.00 0.00 83 1013.7
20260509214735 55 344 1.0 1.0 0.00 0.00 0.00 83 1013.8
20260509214254 55 344 0.0 2.0 0.00 0.00 0.00 83 1013.8
20260509213731 55 344 0.0 3.0 0.00 0.00 0.00 83 1013.8
20260509213231 55 344 1.0 3.0 0.00 0.00 0.00 83 1013.8
20260509212731 55 227 0.0 0.0 0.00 0.00 0.00 83 1013.8
20260509212227 55 227 0.0 0.0 0.00 0.00 0.00 82 1013.7
20260509211723 55 227 0.0 0.0 0.00 0.00 0.00 82 1013.7
20260509211252 56 227 0.0 0.0 0.00 0.00 0.00 82 1013.7
20260509210730 56 227 0.0 0.0 0.00 0.00 0.00 82 1013.7
20260509210231 56 227 0.0 0.0 0.00 0.00 0.00 82 1013.6
20260509205749 56 227 0.0 0.0 0.00 0.00 0.00 81 1013.7
20260509205227 56 227 0.0 0.0 0.00 0.00 0.00 81 1013.7
20260509204725 56 227 0.0 0.0 0.00 0.00 0.00 81 1013.8
20260509204225 56 227 0.0 0.0 0.00 0.00 0.00 81 1013.6
20260509203723 56 227 0.0 0.0 0.00 0.00 0.00 80 1013.6
20260509203243 56 227 0.0 0.0 0.00 0.00 0.00 80 1013.7
20260509202747 57 227 0.0 0.0 0.00 0.00 0.00 80 1013.6
20260509202245 57 227 0.0 0.0 0.00 0.00 0.00 80 1013.6
20260509201723 57 227 0.0 0.0 0.00 0.00 0.00 79 1013.6
20260509201223 57 227 0.0 0.0 0.00 0.00 0.00 79 1013.6
20260509200724 57 227 0.0 0.0 0.00 0.00 0.00 79 1013.5
20260509200243 57 227 0.0 0.0 0.00 0.00 0.00 78 1013.5
20260509195741 57 227 0.0 0.0 0.00 0.00 0.00 78 1013.5
20260509195249 58 227 0.0 0.0 0.00 0.00 0.00 77 1013.4
20260509194748 58 227 0.0 0.0 0.00 0.00 0.00 77 1013.4
20260509194241 58 227 0.0 0.0 0.00 0.00 0.00 76 1013.2
20260509193740 58 227 0.0 0.0 0.00 0.00 0.00 76 1013.1
20260509193240 59 227 0.0 0.0 0.00 0.00 0.00 77 1013.1
20260509192739 59 227 0.0 0.0 0.00 0.00 0.00 76 1013.1
20260509192240 60 227 0.0 0.0 0.00 0.00 0.00 76 1013.1
20260509191739 60 227 0.0 0.0 0.00 0.00 0.00 75 1013.0
20260509191239 61 227 0.0 0.0 0.00 0.00 0.00 74 1013.0
20260509190739 62 227 0.0 0.0 0.00 0.00 0.00 73 1013.0
20260509190259 62 227 0.0 0.0 0.00 0.00 0.00 72 1013.0
20260509185736 63 227 0.0 0.0 0.00 0.00 0.00 71 1013.0
20260509185231 63 227 0.0 0.0 0.00 0.00 0.00 71 1013.0
20260509184728 64 227 0.0 0.0 0.00 0.00 0.00 70 1013.0
20260509184238 65 227 0.0 0.0 0.00 0.00 0.00 68 1013.0
20260509183736 65 227 0.0 0.0 0.00 0.00 0.00 66 1013.1
20260509183237 66 227 0.0 0.0 0.00 0.00 0.00 66 1013.1
20260509182737 67 227 0.0 0.0 0.00 0.00 0.00 65 1013.1
20260509182237 67 227 0.0 0.0 0.00 0.00 0.00 64 1013.0
20260509181737 68 227 0.0 0.0 0.00 0.00 0.00 63 1013.0
20260509181235 69 227 0.0 0.0 0.00 0.00 0.00 61 1012.9
20260509180738 69 227 0.0 0.0 0.00 0.00 0.00 60 1012.9
20260509180237 70 227 0.0 0.0 0.00 0.00 0.00 57 1012.9
20260509175735 70 227 0.0 0.0 0.00 0.00 0.00 58 1012.8
20260509175255 71 227 0.0 0.0 0.00 0.00 0.00 57 1012.9
20260509174733 71 227 0.0 1.0 0.00 0.00 0.00 56 1012.8
20260509174231 72 227 0.0 2.0 0.00 0.00 0.00 54 1012.9
20260509173758 72 227 1.0 2.0 0.00 0.00 0.00 53 1012.9
20260509173257 72 227 1.0 2.0 0.00 0.00 0.00 47 1012.8
20260509172729 73 227 2.0 3.0 0.00 0.00 0.00 45 1012.9
20260509172228 73 227 2.0 3.0 0.00 0.00 0.00 45 1013.0
20260509171728 73 227 2.0 3.0 0.00 0.00 0.00 45 1012.9
20260509171226 73 227 2.0 4.0 0.00 0.00 0.00 44 1012.9
20260509170745 74 227 2.0 4.0 0.00 0.00 0.00 43 1012.9